Key West, FL

3:12 AM EDT on September 27, 2016 (GMT -0400)
Key West Naval Air Station

Weather History for KNQX - September, 2012

Change the Weather History Date:

Wednesday, September 26, 2012

  Actual Average Record
Temperature  
Mean Temperature 82 °F -  
Max Temperature 88 °F 87 °F 92 °F (1987)
Min Temperature 77 °F 77 °F 68 °F (2005)
Cooling Degree Days 17    
Growing Degree Days 32 (Base 50)    
Moisture  
Dew Point 75 °F    
Average Humidity 77    
Maximum Humidity 85    
Minimum Humidity 65    
Precipitation  
Precipitation 0.08 in - - ()
Sea Level Pressure  
Sea Level Pressure 30.04 in    
Wind  
Wind Speed 5 mph (ENE)    
Max Wind Speed 10 mph    
Max Gust Speed -    
Visibility 10 miles    
Events Thunderstorm    
Averages and records for this station are not official NWS values.
T = Trace of Precipitation, MM = Missing Value Source: NWS Daily Summary

Daily Weather History Graph

Daily Weather History Graph

Search for Another Location

Airport or City:

Trip Planner

Search our weather history database for the weather conditions in past years. The results will help you decide how hot, cold, wet, or windy it might be!

Date:

Astronomy

Sep. 26, 2012 Rise Set
Actual Time 7:17 AM EDT 7:18 PM EDT
Civil Twilight 6:54 AM EDT 7:41 PM EDT
Nautical Twilight 6:27 AM EDT 8:07 PM EDT
Astronomical Twilight 6:01 AM EDT 8:33 PM EDT
Moon 5:02 PM EDT (9/26) 4:00 AM EDT (9/26)
Length of Visible Light 12h 46m
Length of Day
12h 01m
Waxing Gibbous, 88% of the Moon is Illuminated
Sep 26
Waxing Gibbous
Sep 29
Full
Oct 8
Last Quarter
Oct 15
New
Oct 21
First Quarter

Hourly Weather History & Observations

Time (EDT) Temp. Heat Index Dew Point Humidity Pressure Visibility Wind Dir Wind Speed Gust Speed Precip Events Conditions
12:53 AM 81.0 °F 86.7 °F 75.0 °F 82% 30.05 in 10.0 mi Calm Calm - N/A   Clear
1:28 AM 80.6 °F 86.2 °F 75.2 °F 84% 30.06 in 10.0 mi NE 3.5 mph - N/A Thunderstorm Thunderstorm
1:53 AM 80.1 °F 85.1 °F 75.0 °F 85% 30.05 in 10.0 mi NNE 3.5 mph - 0.02 in Thunderstorm Thunderstorm
2:19 AM 80.6 °F 86.2 °F 75.2 °F 84% 30.05 in 10.0 mi NE 3.5 mph - 0.04 in   Scattered Clouds
2:53 AM 80.1 °F 85.1 °F 75.0 °F 85% 30.02 in 10.0 mi NNE 4.6 mph - 0.06 in   Partly Cloudy
3:23 AM 80.6 °F 86.2 °F 75.2 °F 84% 30.00 in 10.0 mi ENE 5.8 mph - N/A Thunderstorm Thunderstorm
3:53 AM 80.1 °F 85.1 °F 75.0 °F 85% 30.01 in 10.0 mi East 4.6 mph - N/A Thunderstorm Thunderstorm
4:20 AM 80.6 °F 86.2 °F 75.2 °F 84% 30.01 in 10.0 mi East 6.9 mph - N/A   Clear
4:53 AM 77.0 °F - 66.9 °F 71% 29.99 in 10.0 mi East 9.2 mph - N/A   Scattered Clouds
5:53 AM 80.1 °F 85.1 °F 75.0 °F 85% 30.00 in 10.0 mi East 9.2 mph - N/A   Mostly Cloudy
6:53 AM 80.1 °F 84.2 °F 73.0 °F 79% 30.01 in 10.0 mi ENE 5.8 mph - N/A   Mostly Cloudy
7:53 AM 80.1 °F 85.1 °F 75.0 °F 85% 30.02 in 10.0 mi ENE 6.9 mph - N/A   Mostly Cloudy
8:53 AM 81.0 °F 85.2 °F 72.0 °F 74% 30.04 in 10.0 mi ENE 6.9 mph - N/A   Mostly Cloudy
9:53 AM 82.0 °F 87.9 °F 73.9 °F 76% 30.06 in 10.0 mi ENE 5.8 mph - N/A   Mostly Cloudy
10:53 AM 84.0 °F 93.7 °F 77.0 °F 79% 30.07 in 10.0 mi ENE 5.8 mph - N/A   Mostly Cloudy
11:53 AM 86.0 °F 96.9 °F 77.0 °F 74% 30.07 in 10.0 mi East 6.9 mph - N/A   Mostly Cloudy
12:53 PM 87.1 °F 96.3 °F 75.0 °F 67% 30.06 in 10.0 mi East 6.9 mph - N/A   Mostly Cloudy
1:53 PM 87.1 °F 97.3 °F 75.9 °F 69% 30.04 in 10.0 mi ESE 5.8 mph - N/A   Mostly Cloudy
2:53 PM 87.1 °F 96.3 °F 75.0 °F 67% 30.03 in 10.0 mi ENE 6.9 mph - N/A   Mostly Cloudy
3:53 PM 87.1 °F 96.3 °F 75.0 °F 67% 30.02 in 10.0 mi East 5.8 mph - N/A   Mostly Cloudy
4:53 PM 87.1 °F 95.4 °F 73.9 °F 65% 30.01 in 10.0 mi ENE 8.1 mph - N/A   Mostly Cloudy
5:53 PM 86.0 °F 95.1 °F 75.0 °F 70% 30.01 in 10.0 mi ESE 10.4 mph - N/A   Mostly Cloudy
6:53 PM 84.9 °F 93.3 °F 75.0 °F 72% 30.02 in 10.0 mi East 9.2 mph - N/A   Mostly Cloudy
7:53 PM 84.0 °F 91.9 °F 75.0 °F 74% 30.04 in 10.0 mi NE 6.9 mph - N/A   Mostly Cloudy
8:53 PM 82.9 °F 90.8 °F 75.9 °F 79% 30.06 in 10.0 mi NE 8.1 mph - N/A   Mostly Cloudy
9:53 PM 82.9 °F 90.2 °F 75.0 °F 77% 30.07 in 10.0 mi NE 4.6 mph - N/A   Mostly Cloudy
10:53 PM 82.0 °F 87.9 °F 73.9 °F 76% 30.08 in 10.0 mi ENE 6.9 mph - N/A   Clear
11:53 PM 82.0 °F 87.4 °F 73.0 °F 74% 30.07 in 10.0 mi ENE 3.5 mph - N/A   Clear